Location: The Saddle
(36.8333°N, 80.3417°W)
Time: 11:08:17
(UTC-05:00)

Altair - Visible Passes

Search period start: 02 December 2023 00:00
Search period end: 12 December 2023 00:00
Orbit: 1501 x 1682 km, 47.2° (Epoch: 02 December)

Date Brightness Start Highest point End Pass type
(mag) Time Alt. Az. Time Alt. Az. Time Alt. Az.
02 Dec 9.9 17:38:04 10° W 17:44:37 22° SW 17:51:11 10° S visible
03 Dec 9.7 06:46:30 10° S 06:54:36 30° SE 07:02:26 10° ENE visible
04 Dec 9.7 06:21:43 10° S 06:29:29 27° SE 06:37:02 10° ENE visible
05 Dec 9.8 05:56:59 10° S 06:04:22 24° SE 06:11:34 10° ENE visible
06 Dec 9.8 05:32:19 10° S 05:39:16 22° SE 05:46:02 10° E visible
07 Dec 9.8 05:07:45 10° SSE 05:14:10 19° SE 05:20:26 10° E visible
08 Dec 9.9 04:43:17 10° SSE 04:49:04 17° SE 04:54:45 10° E visible
08 Dec 8.1 06:42:49 10° SW 06:52:36 65° SE 07:02:01 10° ENE visible
09 Dec 9.9 04:18:58 10° SSE 04:23:59 15° ESE 04:28:54 10° E visible
09 Dec 8.2 06:17:42 10° SW 06:27:25 60° SE 06:36:47 10° ENE visible
10 Dec 9.9 03:54:55 10° SSE 03:58:53 13° ESE 04:02:49 10° E visible
10 Dec 8.3 05:52:36 10° SSW 06:02:14 56° SE 06:11:32 10° ENE visible
11 Dec 9.9 03:31:24 10° SE 03:33:48 11° ESE 03:36:11 10° ESE visible
11 Dec 8.3 05:27:32 10° SSW 05:37:04 51° SE 05:46:18 10° ENE visible
